{"data":{"norad_id":69611,"intl_designator":"2026-140V","name":"KUIPER-00542","alt_names":[],"object_type":"PAYLOAD","status":"ACTIVE","operator":null,"country":"US","launch_date":"2026-06-17","launch_site_code":"FRGUI","launch_vehicle":null,"mission":null,"orbit_class":"UNKNOWN","rcs_meters":null,"size_class":null,"mass_kg":null,"dimensions":null,"purposes":[],"wikipedia_slug":null,"has_3d_model":false,"image_url":null,"decayed_at":null,"tle_current":{"epoch":"2026-09-20T04:00:03.000096Z","epoch_age_seconds":57822,"freshness":"FRESH","line1":"1 69611U 26140V   26263.16670139 -.00252116  00000+0 -10956-1 0  9998","line2":"2 69611  51.8864 299.4407 0008024 162.3714 240.8748 15.22876303  4565","mean_motion":15.22876303,"eccentricity":0.0008024,"inclination_deg":51.8864,"raan_deg":299.4407,"arg_perigee_deg":162.3714,"mean_anomaly_deg":240.8748,"bstar":-0.010956,"rev_number":456,"period_min":94.557909737203,"perigee_km":491.65315072219,"apogee_km":502.68664323046,"semimajor_km":6875.3068969763,"source":"CELESTRAK","updated_at":"2026-09-20T09:00:25.003802Z"}}}